Duchifat 3
1 44854U 19089C   25068.74332979  .00061480  00000-0  16797-2 0  9998
2 44854  36.9459 215.0774 0005457 142.4171 217.6964 15.36334375288766
TO-108
1 44881U 19093C   25068.81510038  .00002341  00000-0  27859-3 0  9998
2 44881  97.7992 146.3782 0014288 167.4759 192.6814 14.85242607282454
FloripaSat 1
1 44885U 19093G   25068.82130011  .00011183  00000-0  98283-3 0  9995
2 44885  97.8180 156.3380 0011460 151.5976 208.5872 14.96675625283013
RS-44
1 44909U 19096E   25068.61426400  .00000029  00000-0  64298-4 0  9999
2 44909  82.5183 288.3994 0217958 150.3805 210.9850 12.79738867242924
UPMSat 2
1 46276U 20061E   25068.71031577  .00064490  00000-0  94285-3 0  9990
2 46276  97.2568 140.8420 0001440 170.5608 189.5674 15.55413004251128
SALSAT
1 46495U 20068K   25068.43184039  .00014755  00000-0  67629-3 0  9992
2 46495  97.8517  42.3861 0014129 116.6483 243.6200 15.20485051244511
CubeSX-Sirius-HSE
1 47951U 21022V   25068.87364170  .00114460  00000-0  15553-2 0  9997
2 47951  97.4300 337.0453 0003345 255.5993 104.4891 15.57208325219411
CubeSX-HSE
1 47952U 21022W   25068.84572556  .00117061  00000-0  15546-2 0  9996
2 47952  97.4303 337.2142 0003473 241.3662 118.7245 15.57815033219422
KSU-Cubesat
1 47954U 21022Y   25068.80980597  .00620246  15218-3  20593-2 0  9994
2 47954  97.4237 342.1211 0005468 145.7635 214.3992 15.90286691219459
GRBAlpha
1 47959U 21022AD  25068.87457131  .00110599  00000-0  14816-2 0  9995
2 47959  97.4289 337.3935 0003369 252.3535 107.7353 15.57604935218253
Orbicraft-Zorkiy
1 47960U 21022AE  25068.87982177  .00221248  00000-0  16150-2 0  9997
2 47960  97.4269 340.9202 0003006 169.0305 191.1025 15.72597787219142
TUBIN
1 48900U 21059X   25068.87946166  .00050861  00000-0  89945-3 0  9994
2 48900  97.6683 231.3704 0004941 221.2204 138.8674 15.50156288205783
LEDSAT
1 49069U 21073D   25068.75426150  .00070296  00000-0  13727-2 0  9998
2 49069  97.3995 147.3343 0011630  57.4915 302.7457 15.47162922197171
CUTE
1 49263U 21088D   25068.77355434  .00021936  00000-0  50643-3 0  9994
2 49263  97.4603 142.6164 0009124 208.6552 151.4194 15.42513902190257
TeikyoSat 4
1 49396U 21102B   25068.67763214  .00004085  00000-0  27651-3 0  9995
2 49396  97.4234 110.3950 0014275  89.6092 270.6772 15.06966291182708
Z-Sat
1 49399U 21102E   25068.80948300  .00008739  00000-0  49446-3 0  9990
2 49399  97.3943 113.0849 0019864  65.0939 295.2354 15.13115945183093
KOSEN 1
1 49402U 21102H   25068.67117791  .00014019  00000-0  68383-3 0  9991
2 49402  97.3854 115.7128 0017315  45.2596 315.0044 15.18280801183339
HO-113
1 50466U 21131B   25068.87949427  .00001102  00000-0  35948-3 0  9996
2 50466  98.5103 158.7034 0004952  62.1798 297.9892 14.40599120168242
IRIS-A
1 51044U 22002BN  25068.75431475  .00135198  00000-0  14899-2 0  9997
2 51044  97.3393 144.5300 0004043 170.7074 189.4259 15.62662409175398
Foresail-1
1 52766U 22057AL  25068.34616341  .00116048  00000-0  13348-2 0  9992
2 52766  97.5996 211.4172 0007152 255.3481 104.6983 15.61595940155360
SNUGLITE 2
1 52899U 22065F   25068.36667911  .00002951  00000-0  58778-3 0  9993
2 52899  98.1515 211.3397 0008145  49.1698 311.0209 14.62758968143005
IO-117
1 53106U 22080B   25051.21822557 -.00000003  00000-0  00000+0 0  9995
2 53106  70.1434 106.3440 0008542  48.0089 312.1297  6.42557744 61200
UmKA 1 (RS40S)
1 57172U 23091G   25068.84364100  .00010769  00000-0  60195-3 0  9991
2 57172  97.5719 124.7429 0013598 292.1441  67.8346 15.13594034 93595
CubeBel-2 (EU11S)
1 57175U 23091K   25068.88781072  .00016332  00000-0  83725-3 0  9995
2 57175  97.5723 125.4401 0011566 302.3855  57.6258 15.16585068 93642
VERONIKA
1 58261U 23174F   25068.86118731  .00083239  00000-0  15706-2 0  9991
2 58261  97.4235 151.1083 0005796  11.7116 348.4268 15.48157420 74392
KAFASAT
1 58317U 23174BP  25068.73017725  .00389248  00000-0  24514-2 0  9996
2 58317  97.4093 155.0160 0006253 290.9002  69.1594 15.75569902 74660
ENSO
1 58470U 23185J   25068.85982361  .00053879  00000-0  11679-2 0  9994
2 58470  97.3853 141.7572 0008016  58.1528 302.0499 15.44211111 70827
EIRSAT-1
1 58472U 23185L   25068.87916027  .00075468  00000-0  13852-2 0  9997
2 58472  97.3847 142.6045 0006475  56.8543 303.3329 15.48978200 70881
SONATE-2
1 59112U 24043Q   25068.30978708  .00032106  00000-0  10661-2 0  9992
2 59112  97.4987 198.0000 0012097  84.2303 276.0317 15.31085708 56196
MO-122
1 60209U 24125G   25068.53793704  .00032193  00000-0  10532-2 0  9991
2 60209  97.2926 281.3870 0021912 106.2608 254.1046 15.31397532 37844
GRBBeta
1 60237U 24128C   25068.33721966  .00010684  00000-0  82606-3 0  9997
2 60237  61.9929  40.8961 0043368  36.7783 323.6269 15.01223550 36343
Curium One
1 60242U 24128H   25068.30275651  .00017948  00000-0  13205-2 0  9993
2 60242  61.9829  40.4632 0043698  31.8562 328.5157 15.02743715 36358
ROBUSTA-3A
1 60243U 24128J   25068.34636557  .00017128  00000-0  12760-2 0  9999
2 60243  61.9898  40.8561 0041959  29.8882 330.4592 15.02358874 36353
CatSat
1 60246U 24125J   25068.55911975  .00016913  00000-0  60632-3 0  9995
2 60246  97.2713 281.5526 0046344  62.7694 297.8257 15.27748573 35921
HYPERVIEW-1G (RS66S)
1 61772U 24199AP  25068.91180723  .00031476  00000-0  10754-2 0  9990
2 61772  97.3700 298.1919 0015679 155.1232 205.0768 15.30117007 62918
AO-123
1 61781U 24199AY  25068.87030715  .00013103  00000-0  50454-3 0  9999
2 61781  97.3706 297.8047 0017045 157.3188 202.8807 15.26352369 62887
ZIMSAT 2
1 61783U 24199BA  25068.85751616  .00047462  00000-0  15159-2 0  9996
2 61783  97.3694 298.2581 0016521 154.8319 205.3732 15.32184532 66060
POEM 4 (BGS ARPIT)
1 62461U 24253C   25068.74766667  .00302459  45516-4  87986-3 0  9994
2 62461  55.2152 285.4555 0006801 123.5406 236.6299 15.92440088 10909
HADES-R (SO-124)
1 62690U 25009CK  25068.76142995  .00053417  00000-0  24557-2 0  9998
2 62690  97.4172 150.4465 0002357  70.8686 289.2804 15.20160357  8159
